This is the latest recevied weather packets stored in our database for station/object HUGOCO. If no packets are shown the sender has not sent any weather packets the latest 10 day(s).
| Time | Temp. | Humidity | Pressure | Rain* | Wind** | Luminosity | Snow |
|---|---|---|---|---|---|---|---|
| 1777144293 | 7.22° C | 61% | 1011.9 hPa | 0 mm | - | - | - |
| 1777143392 | 6.67° C | 64% | 1012 hPa | 0 mm | - | - | - |
| 1777141594 | 6.11° C | 64% | 1012.2 hPa | 0 mm | - | - | - |
| 1777139792 | 5.56° C | 66% | 1012.5 hPa | 0 mm | - | - | - |
| 1777138893 | 4.44° C | 70% | 1012.6 hPa | 0 mm | - | - | - |
| 1777138098 | 3.89° C | 70% | 1012.7 hPa | 0 mm | - | - | - |
| 1777137993 | 3.89° C | 70% | 1012.7 hPa | 0 mm | - | - | - |
| 1777137092 | 3.89° C | 71% | 1012.7 hPa | 0 mm | - | - | - |
| 1777136192 | 2.78° C | 75% | 1012.8 hPa | 0 mm | - | - | - |
| 1777135294 | 2.22° C | 77% | 1013 hPa | 0 mm | - | - | - |
| 1777134395 | 1.67° C | 80% | 1012.5 hPa | 0 mm | - | - | - |
| 1777133493 | 1.67° C | 81% | 1012.7 hPa | 0 mm | - | - | - |
| 1777132592 | 1.67° C | 81% | 1012.5 hPa | 0 mm | - | - | - |
| 1777131693 | 1.11° C | 82% | 1012.6 hPa | 0 mm | - | - | - |
| 1777130797 | 1.11° C | 82% | 1012.7 hPa | 0 mm | - | - | - |
| 1777129893 | 1.11° C | 81% | 1012.7 hPa | 0 mm | - | - | - |
| 1777128992 | 0.56° C | 82% | 1012.7 hPa | 0 mm | - | - | - |
| 1777128093 | 1.11° C | 82% | 1012.6 hPa | 0 mm | - | - | - |
| 1777127193 | 0.56° C | 82% | 1012.5 hPa | 0 mm | - | - | - |
| 1777126293 | 0.56° C | 83% | 1012.2 hPa | 0 mm | - | - | - |
| 1777125393 | 0.56° C | 87% | 1012.1 hPa | 0 mm | - | - | - |
| 1777124493 | 0° C | 87% | 1011.9 hPa | 0 mm | - | - | - |
| 1777123593 | 0° C | 86% | 1011.9 hPa | 0 mm | - | - | - |
* Rain latest hour (hover to see other rain measurements)
** Current wind speed in m/s (hover to see current wind gust speed)